Hourly Weather Bolshoe Yurkovo

Today, 25 July, Sunday

Time Temperature Precipitation Wind Pressure Humidity
00:00 +13°C° 0 mm 1 mps 758 mmHg 74%
01:00 +13°C° 0 mm 1 mps 758 mmHg 76%
02:00 +11°C° 0 mm 0 mps 758 mmHg 78%
03:00 +11°C° 0 mm 0 mps 759 mmHg 78%
04:00 +11°C° 0 mm 0 mps 759 mmHg 78%
05:00 +12°C° 0 mm 0 mps 759 mmHg 79%
06:00 +14°C° 0 mm 0 mps 759 mmHg 71%
07:00 +16°C° 0 mm 0 mps 759 mmHg 63%
08:00 +19°C° 0 mm 0 mps 759 mmHg 55%
09:00 +23°C° 0 mm 1 mps 759 mmHg 50%
10:00 +24°C° 0 mm 1 mps 759 mmHg 45%
11:00 +26°C° 0 mm 1 mps 759 mmHg 40%
12:00 +26°C° 0 mm 1 mps 759 mmHg 38%
13:00 +27°C° 0 mm 1 mps 759 mmHg 37%
14:00 +27°C° 0 mm 1 mps 759 mmHg 35%
15:00 +27°C° 0 mm 1 mps 759 mmHg 39%
16:00 +26°C° 0 mm 1 mps 759 mmHg 42%
17:00 +26°C° 0 mm 1 mps 759 mmHg 45%
18:00 +25°C° 0 mm 1 mps 759 mmHg 50%
19:00 +23°C° 0 mm 1 mps 759 mmHg 55%
20:00 +21°C° 0 mm 1 mps 759 mmHg 60%
21:00 +21°C° 0 mm 1 mps 760 mmHg 60%
22:00 +20°C° 0 mm 1 mps 760 mmHg 61%
23:00 +20°C° 0 mm 1 mps 760 mmHg 61%

Tomorrow, 26 July, Monday

Time Temperature Precipitation Wind Pressure Humidity
00:00 +19°C° 0 mm 1 mps 760 mmHg 62%
01:00 +19°C° 0 mm 1 mps 760 mmHg 64%
02:00 +16°C° 0 mm 0 mps 760 mmHg 66%
03:00 +16°C° 0 mm 0 mps 761 mmHg 68%
04:00 +16°C° 0 mm 0 mps 761 mmHg 71%
05:00 +15°C° 0 mm 0 mps 761 mmHg 73%
06:00 +17°C° 0 mm 0 mps 761 mmHg 66%
07:00 +20°C° 0 mm 0 mps 761 mmHg 59%
08:00 +22°C° 0 mm 0 mps 761 mmHg 52%
09:00 +24°C° 0 mm 0 mps 761 mmHg 47%
10:00 +25°C° 0 mm 0 mps 761 mmHg 42%
11:00 +29°C° 0 mm 1 mps 761 mmHg 37%
12:00 +29°C° 0 mm 1 mps 761 mmHg 36%
13:00 +30°C° 0 mm 1 mps 761 mmHg 34%
14:00 +30°C° 0 mm 1 mps 761 mmHg 33%
15:00 +30°C° 0 mm 1 mps 761 mmHg 34%
16:00 +29°C° 0 mm 1 mps 761 mmHg 35%
17:00 +29°C° 0 mm 1 mps 760 mmHg 36%
18:00 +27°C° 0 mm 1 mps 760 mmHg 44%
19:00 +25°C° 0 mm 1 mps 760 mmHg 52%
20:00 +23°C° 0 mm 1 mps 761 mmHg 60%
21:00 +22°C° 0 mm 1 mps 761 mmHg 61%
22:00 +21°C° 0 mm 1 mps 761 mmHg 63%
23:00 +20°C° 0 mm 1 mps 761 mmHg 65%

Day after tomorrow, 27 July, Tuesday

Time Temperature Precipitation Wind Pressure Humidity
00:00 +20°C° 0 mm 1 mps 761 mmHg 66%
01:00 +19°C° 0 mm 1 mps 761 mmHg 68%
02:00 +19°C° 0 mm 1 mps 761 mmHg 69%
03:00 +19°C° 0 mm 1 mps 761 mmHg 70%
04:00 +18°C° 0 mm 1 mps 761 mmHg 71%
05:00 +18°C° 0 mm 1 mps 761 mmHg 72%
06:00 +21°C° 0 mm 1 mps 761 mmHg 66%
07:00 +23°C° 0 mm 2 mps 761 mmHg 59%
08:00 +25°C° 0 mm 2 mps 761 mmHg 52%
09:00 +27°C° 0 mm 2 mps 761 mmHg 48%
10:00 +28°C° 0 mm 2 mps 760 mmHg 44%
11:00 +30°C° 0 mm 2 mps 760 mmHg 40%
12:00 +30°C° 0 mm 2 mps 760 mmHg 39%
13:00 +30°C° 0 mm 2 mps 759 mmHg 38%
14:00 +31°C° 0 mm 2 mps 759 mmHg 37%
15:00 +30°C° 0 mm 2 mps 759 mmHg 40%
16:00 +30°C° 0 mm 2 mps 758 mmHg 43%
17:00 +29°C° 0 mm 2 mps 758 mmHg 46%
18:00 +27°C° 0 mm 2 mps 758 mmHg 52%
19:00 +26°C° 0 mm 2 mps 758 mmHg 57%
20:00 +24°C° 0 mm 2 mps 758 mmHg 62%
21:00 +23°C° 0 mm 2 mps 758 mmHg 64%
22:00 +21°C° 0 mm 2 mps 758 mmHg 67%
23:00 +20°C° 0 mm 2 mps 757 mmHg 69%

28 July, Wednesday

Time Temperature Precipitation Wind Pressure Humidity
00:00 +20°C° 0 mm 2 mps 757 mmHg 71%
01:00 +19°C° 0 mm 2 mps 757 mmHg 72%
02:00 +19°C° 0 mm 2 mps 757 mmHg 74%
03:00 +19°C° 0 mm 2 mps 756 mmHg 76%
04:00 +19°C° 0 mm 2 mps 756 mmHg 78%
05:00 +18°C° 0 mm 2 mps 756 mmHg 79%
06:00 +20°C° 0 mm 2 mps 755 mmHg 73%
07:00 +23°C° 0 mm 2 mps 755 mmHg 67%
08:00 +25°C° 0 mm 2 mps 755 mmHg 61%
09:00 +25°C° 0 mm 2 mps 755 mmHg 60%
10:00 +26°C° 0 mm 2 mps 755 mmHg 59%
11:00 +26°C° 0 mm 2 mps 754 mmHg 59%
12:00 +26°C° 0 mm 3 mps 754 mmHg 62%
13:00 +25°C° 0 mm 3 mps 754 mmHg 65%
14:00 +25°C° 0 mm 3 mps 753 mmHg 68%
15:00 +24°C° 0.1 mm 3 mps 753 mmHg 70%
16:00 +23°C° 0.1 mm 4 mps 753 mmHg 73%
17:00 +23°C° 0.1 mm 4 mps 753 mmHg 75%
18:00 +22°C° 0.1 mm 3 mps 752 mmHg 81%
19:00 +21°C° 0.1 mm 3 mps 752 mmHg 86%
20:00 +20°C° 0.1 mm 2 mps 752 mmHg 91%
21:00 +20°C° 0 mm 1 mps 752 mmHg 92%
22:00 +20°C° 0 mm 1 mps 751 mmHg 94%
23:00 +20°C° 0 mm 1 mps 751 mmHg 96%

29 July, Thursday

Time Temperature Precipitation Wind Pressure Humidity
00:00 +19°C° 0 mm 1 mps 751 mmHg 96%
01:00 +17°C° 0 mm 0 mps 751 mmHg 97%
02:00 +17°C° 0 mm 0 mps 750 mmHg 98%
03:00 +17°C° 0 mm 0 mps 750 mmHg 98%
04:00 +17°C° 0 mm 0 mps 750 mmHg 97%
05:00 +19°C° 0 mm 1 mps 750 mmHg 96%
06:00 +20°C° 0 mm 1 mps 750 mmHg 95%
07:00 +20°C° 0 mm 1 mps 750 mmHg 93%
08:00 +21°C° 0 mm 1 mps 750 mmHg 92%
09:00 +21°C° 0.2 mm 2 mps 750 mmHg 86%
10:00 +23°C° 0.2 mm 2 mps 750 mmHg 80%
11:00 +24°C° 0.2 mm 3 mps 750 mmHg 74%
12:00 +25°C° 0.2 mm 3 mps 750 mmHg 67%
13:00 +26°C° 0.2 mm 4 mps 749 mmHg 60%
14:00 +27°C° 0.2 mm 4 mps 749 mmHg 54%
15:00 +26°C° 0.1 mm 4 mps 749 mmHg 58%
16:00 +26°C° 0.1 mm 4 mps 749 mmHg 63%
17:00 +25°C° 0.1 mm 4 mps 749 mmHg 68%
18:00 +22°C° 0.1 mm 3 mps 749 mmHg 73%
19:00 +21°C° 0.1 mm 3 mps 749 mmHg 79%
20:00 +20°C° 0.1 mm 3 mps 750 mmHg 84%
21:00 +19°C° 0 mm 3 mps 750 mmHg 87%
22:00 +18°C° 0 mm 2 mps 750 mmHg 90%
23:00 +18°C° 0 mm 2 mps 750 mmHg 93%

30 July, Friday

Time Temperature Precipitation Wind Pressure Humidity
00:00 +17°C° 0 mm 2 mps 750 mmHg 93%
01:00 +16°C° 0 mm 3 mps 750 mmHg 93%
02:00 +16°C° 0 mm 3 mps 750 mmHg 93%
03:00 +16°C° 0 mm 3 mps 750 mmHg 93%
04:00 +14°C° 0 mm 3 mps 750 mmHg 94%
05:00 +14°C° 0 mm 3 mps 750 mmHg 94%
06:00 +17°C° 0 mm 3 mps 751 mmHg 86%
07:00 +19°C° 0 mm 4 mps 751 mmHg 78%
08:00 +20°C° 0 mm 4 mps 751 mmHg 69%
09:00 +22°C° 0 mm 4 mps 751 mmHg 60%
10:00 +25°C° 0 mm 5 mps 750 mmHg 50%
11:00 +26°C° 0 mm 5 mps 750 mmHg 41%
12:00 +27°C° 0 mm 5 mps 750 mmHg 39%
13:00 +28°C° 0 mm 5 mps 750 mmHg 37%
14:00 +28°C° 0 mm 5 mps 750 mmHg 35%
15:00 +27°C° 0 mm 4 mps 750 mmHg 39%
16:00 +27°C° 0 mm 4 mps 750 mmHg 43%
17:00 +26°C° 0 mm 3 mps 750 mmHg 46%
18:00 +24°C° 0 mm 3 mps 750 mmHg 53%
19:00 +23°C° 0 mm 2 mps 750 mmHg 60%
20:00 +20°C° 0 mm 2 mps 750 mmHg 67%
21:00 +19°C° 0 mm 2 mps 750 mmHg 69%
22:00 +18°C° 0 mm 2 mps 750 mmHg 70%
23:00 +17°C° 0 mm 2 mps 750 mmHg 72%
Show more

We Need Your Consent

Meteoprog and our Service Providers may store and access personal data such as cookies, device identifiers or other similar technologies on your device and process such data to personalise content and ads, as well as provide social media features and to analyse the traffic.

  • Store and/or access information on your device

    Cookies, device identifiers or other information can be stored or accessed on your device for the purposes indicated above.

  • Personalised ads and content, ad and content measurement, audience insights, and products development

    Ads and content can be personalised based on a profile. More data can be added to better personalise ads and content. Ad and content performance can be measured. Insights about the audience who saw the ads and content can be derived. Such data can be used to develop or improve user’s experience, systems and software.

By clicking ‘I Agree’ you will allow the use of indicated cookies, device identifiers, web beacons or other similar technologies. Your settings can be changed in the browser on your device.

For certain purposes, legitimate interests may be relied on, rather than consent. You can read more about this in our Privacy and Cookie Policy.